EW2821 Weather Reports


Display with metric or nautical units.
time (UTC)temp
F
wind
direction
speed
MPH
gust
MPH
rain 1hr
in
rain 24hr
in
rain mn
in
humidity
%
barometer
mb
20230202210015 36 228 8.0 14.0 0.00 0.00 0.00 54 1017.5
20230202204517 36 271 7.0 17.0 0.00 0.00 0.00 56 1017.4
20230202203022 36 216 9.0 14.0 0.00 0.00 0.00 58 1017.3
20230202201514 36 227 10.0 19.0 0.00 0.00 0.00 57 1017.4
20230202200014 36 225 9.0 15.0 0.00 0.00 0.00 60 1017.5
20230202194508 35 251 7.0 15.0 0.00 0.00 0.00 60 1017.7
20230202193005 34 226 9.0 15.0 0.00 0.00 0.00 62 1018.0
20230202191515 35 218 13.0 19.0 0.00 0.00 0.00 60 1018.1
20230202190003 34 218 10.0 18.0 0.00 0.00 0.00 61 1018.5
20230202184502 34 214 9.0 19.0 0.00 0.00 0.00 61 1018.4
20230202183059 34 207 7.0 19.0 0.00 0.00 0.00 61 1018.9
20230202181559 34 232 9.0 18.0 0.00 0.00 0.00 61 1019.0
20230202180056 33 212 9.0 14.0 0.00 0.00 0.00 62 1019.0
20230202174552 32 224 10.0 14.0 0.00 0.00 0.00 62 1019.8
20230202173051 32 245 11.0 18.0 0.00 0.00 0.00 61 1020.2
20230202171552 32 242 9.0 20.0 0.00 0.00 0.00 60 1020.4
20230202170048 32 226 8.0 16.0 0.00 0.00 0.00 64 1020.7
20230202164603 32 222 9.0 17.0 0.00 0.00 0.00 62 1020.7
20230202163041 31 218 9.0 18.0 0.00 0.00 0.00 62 1020.6
20230202161538 30 234 9.0 14.0 0.00 0.00 0.00 64 1020.5
20230202160041 29 207 8.0 12.0 0.00 0.00 0.00 66 1020.2
20230202154529 28 222 9.0 14.0 0.00 0.00 0.00 67 1020.5
20230202153023 27 221 8.0 11.0 0.00 0.00 0.00 68 1020.6
20230202151522 27 212 8.0 10.0 0.00 0.00 0.00 69 1020.6
20230202150014 26 220 5.0 10.0 0.00 0.00 0.00 71 1020.6
20230202144510 25 230 8.0 11.0 0.00 0.00 0.00 72 1020.8
20230202143006 24 205 5.0 10.0 0.00 0.00 0.00 74 1021.1
20230202141501 23 220 6.0 10.0 0.00 0.00 0.00 75 1021.4
20230202140110 22 219 6.0 10.0 0.00 0.00 0.00 77 1021.7
20230202134557 21 207 6.0 10.0 0.00 0.00 0.00 79 1021.8
20230202133048 20 215 5.0 7.0 0.00 0.00 0.00 82 1022.0
20230202131545 18 217 2.0 6.0 0.00 0.00 0.00 83 1022.1
20230202130046 18 217 2.0 5.0 0.00 0.00 0.00 83 1022.2
20230202124540 18 217 2.0 4.0 0.00 0.00 0.00 83 1022.2
20230202123040 17 217 2.0 5.0 0.00 0.00 0.00 84 1021.9
20230202121548 17 217 1.0 3.0 0.00 0.00 0.00 83 1021.7
20230202120038 17 217 2.0 4.0 0.00 0.00 0.00 82 1021.8
20230202114543 17 217 2.0 4.0 0.00 0.00 0.00 81 1021.7
20230202113033 18 217 2.0 3.0 0.00 0.00 0.00 80 1021.7
20230202111532 19 217 1.0 4.0 0.00 0.00 0.00 80 1022.0
20230202110043 19 217 3.0 5.0 0.00 0.00 0.00 81 1021.9
20230202104529 18 217 0.0 2.0 0.00 0.00 0.00 84 1022.2
20230202103033 18 217 0.0 2.0 0.00 0.00 0.00 85 1022.5
20230202101527 18 217 0.0 2.0 0.00 0.00 0.00 85 1022.4
20230202100026 17 217 0.0 2.0 0.00 0.00 0.00 86 1022.1
20230202094524 17 217 0.0 3.0 0.00 0.00 0.00 85 1022.4
20230202093033 18 217 0.0 2.0 0.00 0.00 0.00 85 1022.3
20230202091523 18 217 0.0 1.0 0.00 0.00 0.00 85 1022.5
20230202090022 18 217 0.0 1.0 0.00 0.00 0.00 86 1022.5
20230202084519 17 217 2.0 4.0 0.00 0.00 0.00 84 1022.9
20230202083016 17 217 0.0 2.0 0.00 0.00 0.00 81 1022.9
20230202081514 19 217 0.0 0.0 0.00 0.00 0.00 80 1022.8
20230202080012 20 217 0.0 2.0 0.00 0.00 0.00 80 1023.0
20230202074510 20 217 0.0 3.0 0.00 0.00 0.00 80 1023.1
20230202073011 20 217 1.0 4.0 0.00 0.00 0.00 81 1023.1
20230202071508 19 217 2.0 4.0 0.00 0.00 0.00 83 1023.4
20230202070012 19 217 1.0 4.0 0.00 0.00 0.00 84 1023.4
20230202064505 20 217 2.0 3.0 0.00 0.00 0.00 84 1023.5
20230202063006 20 217 0.0 3.0 0.00 0.00 0.00 83 1023.4
20230202061513 21 217 1.0 3.0 0.00 0.00 0.00 83 1023.3
20230202060003 21 217 1.0 3.0 0.00 0.00 0.00 84 1023.6
20230202054559 21 217 1.0 5.0 0.00 0.00 0.00 86 1023.9
20230202053057 19 217 1.0 3.0 0.00 0.00 0.00 89 1024.3
20230202051614 18 217 0.0 1.0 0.00 0.00 0.00 88 1024.5
20230202050101 18 217 1.0 2.0 0.00 0.00 0.00 89 1024.4
20230202044551 17 217 0.0 1.0 0.00 0.00 0.00 88 1024.1
20230202043048 17 217 0.0 0.0 0.00 0.00 0.00 87 1024.4
20230202041546 17 217 0.0 0.0 0.00 0.00 0.00 86 1024.3
20230202040048 18 217 0.0 0.0 0.00 0.00 0.00 85 1024.3
20230202034553 18 217 1.0 2.0 0.00 0.00 0.00 84 1024.5
20230202033054 19 217 0.0 1.0 0.00 0.00 0.00 83 1024.2
20230202031545 19 217 0.0 0.0 0.00 0.00 0.00 82 1024.4
20230202030048 20 217 0.0 1.0 0.00 0.00 0.00 82 1024.1
20230202024538 20 217 1.0 3.0 0.00 0.00 0.00 83 1024.2
20230202023039 20 217 1.0 3.0 0.00 0.00 0.00 84 1024.6
20230202021541 20 217 0.0 1.0 0.00 0.00 0.00 84 1024.8
20230202020048 20 217 0.0 2.0 0.00 0.00 0.00 84 1025.2
20230202014535 19 217 0.0 0.0 0.00 0.00 0.00 82 1025.3
20230202013106 20 217 0.0 0.0 0.00 0.00 0.00 81 1025.3
20230202011551 20 217 0.0 1.0 0.00 0.00 0.00 79 1025.1
20230202010039 20 217 0.0 2.0 0.00 0.00 0.00 79 1025.1
20230202004533 20 217 3.0 4.0 0.00 0.00 0.00 77 1025.2
20230202003033 21 217 1.0 3.0 0.00 0.00 0.00 74 1024.7
20230202001539 22 217 1.0 2.0 0.00 0.00 0.00 74 1024.9
20230202000035 23 217 0.0 0.0 0.00 0.00 0.00 71 1024.7
20230201234537 23 217 0.0 2.0 0.00 0.00 0.00 68 1024.9
20230201233033 24 217 0.0 2.0 0.00 0.00 0.00 65 1025.1
20230201231545 24 217 0.0 3.0 0.00 0.00 0.00 62 1025.0
20230201230028 25 217 1.0 3.0 0.00 0.00 0.00 61 1025.5
20230201224527 25 217 2.0 7.0 0.00 0.00 0.00 59 1025.6
20230201223026 26 216 4.0 6.0 0.00 0.00 0.00 58 1025.3
20230201221537 26 216 3.0 6.0 0.00 0.00 0.00 57 1025.3
20230201220026 27 216 3.0 8.0 0.00 0.00 0.00 57 1025.4
20230201214528 26 245 2.0 5.0 0.00 0.00 0.00 55 1025.3
20230201213035 26 245 2.0 5.0 0.00 0.00 0.00 56 1025.2
20230201211533 27 245 1.0 7.0 0.00 0.00 0.00 54 1025.4